Wind_Speed
19 19 20 22 22 22 21 20 20 21 21 21 20 19 20 22 24 26 27 29 30 34 38 41 43 45 48 53 56 57 60 63 64 65 68 71 74 76 77 79 81 83 81
19 20 21 20 18 16 16 17 18 19 20 18 19 19 21 22 23 26 28 30 33 36 39 41 43 46 52 56 57 58 61 64 66 66 69 72 75 78 81 82 78 78 77
20 19 17 15 15 16 17 17 17 17 17 18 19 20 21 22 24 27 29 32 36 39 41 43 46 50 54 57 60 62 64 66 67 70 71 74 77 80 78 77 74 64 56
18 15 14 16 16 17 17 16 16 16 17 18 19 20 22 24 26 28 32 35 39 41 43 46 49 52 55 58 61 64 66 68 69 71 73 76 79 77 76 67 55 51 49
15 14 15 16 16 16 15 14 15 15 16 17 18 19 21 24 27 30 34 36 39 43 45 48 51 54 57 60 64 67 69 69 71 73 77 78 75 73 62 56 53 51 49
14 14 13 13 14 14 14 14 15 15 16 17 17 18 21 25 29 32 35 38 42 45 48 50 53 56 59 62 66 69 70 70 73 76 79 75 73 62 58 58 59 57 54
13 12 12 12 12 13 15 15 16 15 15 15 17 20 23 27 31 34 37 40 44 48 51 54 57 59 61 63 66 68 69 74 78 78 75 73 63 60 61 60 58 55 54
13 13 12 12 12 14 15 15 15 14 14 16 18 21 25 29 33 36 38 42 47 51 54 57 59 60 62 64 67 67 69 74 75 75 74 65 61 62 62 58 56 55 54
15 13 12 12 13 14 16 15 15 15 16 18 21 25 28 30 34 37 40 43 49 53 56 59 60 61 62 65 67 66 69 73 73 72 66 60 61 64 59 56 53 49 38
17 16 14 14 15 16 16 17 17 18 19 21 24 27 29 33 36 39 42 46 49 52 57 62 63 62 63 66 67 66 69 71 70 67 57 56 59 57 52 52 48 43 36
20 18 18 17 17 18 19 20 20 21 23 25 27 30 33 37 41 43 45 48 51 55 60 64 64 62 64 66 66 67 72 71 69 60 52 53 54 51 47 46 44 40 34
22 22 21 21 21 21 23 24 25 26 28 29 31 34 37 40 42 45 47 50 53 57 61 64 64 62 64 65 66 69 71 69 66 54 49 51 49 47 44 43 40 38 35
25 25 25 25 26 26 27 28 29 30 31 32 34 36 39 42 44 46 48 51 54 57 60 64 62 61 62 63 66 68 69 67 62 49 47 47 46 45 42 39 38 36 34
27 28 27 28 28 29 30 30 31 32 33 34 35 38 41 44 45 47 49 52 55 56 59 63 60 60 62 62 65 68 67 65 58 46 44 45 44 42 37 36 36 35 35
29 30 30 30 30 31 31 31 32 33 33 35 38 40 43 45 47 49 50 52 53 55 59 60 59 59 60 61 64 67 65 63 54 43 42 43 42 38 36 36 35 35 34
29 30 30 30 31 31 31 32 33 33 35 37 39 42 44 46 48 49 50 52 53 56 60 58 57 58 58 60 63 64 64 61 51 41 39 40 39 36 34 33 32 33 34
31 32 31 32 32 32 32 33 34 36 37 39 41 43 46 48 49 49 50 50 53 56 59 56 56 57 56 59 62 63 62 59 48 39 37 37 37 34 30 30 31 33 34
34 34 33 34 34 34 34 35 37 38 38 41 43 45 48 49 49 49 49 51 53 56 57 54 55 54 55 58 60 62 61 57 46 37 35 34 34 30 28 29 30 32 33
37 37 38 38 36 36 37 39 40 41 42 43 45 48 49 48 48 48 49 53 53 56 54 53 53 52 53 57 59 61 60 56 45 35 33 31 31 30 27 28 30 33 32
41 41 40 39 39 39 40 42 43 44 44 45 46 48 47 47 47 48 51 51 54 55 51 51 51 50 52 56 58 59 58 56 44 34 31 29 28 29 28 30 32 34 33
42 42 41 41 40 41 43 44 45 45 44 44 46 46 46 46 46 49 49 51 53 50 49 49 49 48 50 54 57 58 57 55 41 32 29 28 27 28 31 32 34 34 32
42 42 43 43 43 43 44 44 44 43 44 45 45 45 44 45 47 47 48 51 50 46 47 47 47 46 49 52 54 55 55 51 37 30 28 28 29 30 33 34 34 33 30
47 44 42 42 42 43 43 43 43 45 45 44 43 43 44 46 46 47 49 50 45 45 46 45 44 45 48 50 53 53 52 47 33 27 28 29 31 33 33 32 32 30 25
47 46 44 42 42 42 43 43 44 45 43 42 43 45 46 45 46 48 48 43 42 44 44 43 42 43 45 48 51 51 49 44 30 28 29 30 33 32 31 31 30 24 19
47 46 45 45 45 45 44 44 44 43 45 46 47 45 45 46 47 47 43 39 42 42 41 40 41 42 43 46 49 50 47 44 30 29 30 32 31 30 28 26 22 19 16
45 45 45 45 44 44 43 44 45 45 45 45 45 45 46 46 46 42 37 39 40 39 38 39 39 40 41 45 48 49 45 43 32 29 30 31 29 25 21 21 19 17 15
Wind_Direction
243 252 263 272 279 281 282 284 287 291 290 288 287 289 291 295 298 301 304 304 305 306 306 308 311 313 318 318 316 313 311 311 311 310 309 309 309 309 309 307 305 302 298
251 260 267 272 273 277 282 288 288 285 282 283 286 291 296 301 304 305 305 306 307 307 309 308 310 315 315 316 316 316 315 314 313 314 313 313 313 312 312 309 306 304 300
256 262 262 264 271 275 279 283 281 280 284 288 292 298 303 304 304 306 309 311 312 312 311 310 314 314 315 317 319 319 319 318 318 319 318 317 316 314 311 310 308 305 303
253 250 259 265 268 270 274 281 283 287 291 295 300 301 302 305 310 315 317 318 317 316 316 317 316 317 318 320 322 322 323 323 322 322 321 320 318 314 315 312 311 308 305
244 252 258 265 268 270 274 280 283 285 290 293 297 301 309 315 318 321 321 321 323 323 322 322 321 322 324 325 326 327 326 325 325 324 322 320 318 318 316 313 311 308 304
245 254 263 268 273 276 276 275 277 284 291 296 302 310 317 319 321 322 322 323 324 327 329 326 326 328 329 329 329 328 329 329 327 326 323 322 323 321 317 315 314 311 306
244 254 265 273 277 276 271 272 278 286 293 300 310 317 319 320 322 325 326 326 328 329 329 330 331 331 331 331 330 331 332 330 329 326 326 326 324 320 321 319 316 313 309
243 253 264 271 271 268 270 276 284 289 296 304 309 313 317 320 322 324 326 328 330 332 333 333 334 332 331 331 332 334 333 330 328 328 328 327 327 326 325 325 323 321 315
242 250 257 264 269 270 273 277 281 287 295 301 307 313 316 320 323 327 329 331 333 334 336 335 334 333 333 333 335 335 332 332 331 332 330 330 330 330 331 332 332 333 332
239 245 251 256 260 267 273 277 282 286 294 302 308 312 315 319 322 326 329 331 331 333 335 337 335 334 334 334 335 334 333 334 333 333 332 334 334 335 336 337 339 345 345
241 243 248 254 260 266 273 278 282 289 297 302 306 308 312 317 320 324 325 326 328 330 333 335 335 334 334 335 335 335 336 336 336 336 336 339 339 342 340 342 346 349 353
243 244 249 255 260 266 272 280 287 292 296 299 303 308 313 316 319 320 323 324 325 328 331 334 335 335 334 335 337 337 338 337 337 337 339 341 343 346 348 346 348 349 352
244 247 251 255 261 267 273 280 285 291 295 299 304 309 313 317 318 320 322 323 325 328 331 334 335 334 335 337 338 338 338 337 339 338 340 343 344 346 348 348 349 351 353
247 251 255 258 263 268 274 279 285 291 296 300 305 310 314 317 320 320 322 324 327 329 332 334 334 335 336 338 338 339 338 338 339 339 340 343 346 349 351 352 352 349 347
250 253 257 260 265 270 275 281 285 290 295 300 306 311 314 317 319 319 322 325 326 329 331 333 333 335 336 338 338 338 338 339 339 337 340 344 347 349 350 351 352 354 357
252 256 258 261 266 271 276 281 286 291 296 301 305 309 314 315 316 318 321 324 326 329 331 332 333 335 336 338 338 338 338 340 339 336 338 344 347 346 349 353 356 -0 2
251 256 261 263 267 271 275 280 286 292 298 303 304 307 312 314 315 317 321 324 327 329 331 332 333 334 336 337 337 338 339 340 338 336 337 343 348 348 353 355 357 1 2
252 257 261 263 266 271 275 281 287 293 297 301 302 306 309 312 314 316 321 324 326 328 330 331 332 334 336 336 337 338 339 341 339 335 335 341 346 347 351 353 354 356 357
254 256 261 264 267 271 276 281 287 291 294 298 302 304 308 310 312 316 321 323 325 327 329 330 331 334 336 336 337 337 339 342 339 335 335 337 344 344 342 345 348 350 350
255 259 261 265 269 273 277 281 285 289 293 297 300 303 307 309 312 317 321 322 324 326 327 329 331 333 335 336 337 337 340 342 340 337 334 334 340 344 340 337 339 342 344
253 258 263 266 270 274 277 281 285 289 293 295 299 303 306 308 312 317 318 321 323 325 326 328 330 333 335 336 336 338 341 342 342 338 336 334 335 338 339 337 335 335 340
254 256 261 266 270 274 277 281 285 288 291 295 299 302 304 308 313 314 317 320 321 323 325 327 330 333 334 336 336 338 341 343 343 339 337 337 336 335 334 335 334 334 337
257 258 261 265 269 273 277 280 284 288 291 295 298 300 304 309 310 313 316 318 319 322 324 327 330 332 334 335 336 338 342 344 342 340 336 334 333 332 331 332 330 331 333
259 262 266 269 272 274 277 280 284 287 290 293 296 300 304 306 308 312 315 316 318 320 323 326 329 331 333 333 335 338 342 343 340 338 336 335 334 334 333 333 334 336 340
260 262 265 268 270 272 276 278 281 284 287 291 296 300 302 304 308 311 313 314 317 318 322 325 327 330 332 332 334 336 341 342 335 336 338 337 338 339 341 344 348 352 354
256 259 262 264 267 269 271 275 279 283 287 291 295 297 300 303 307 309 310 312 314 317 321 323 326 329 330 330 332 335 339 341 335 332 336 337 340 346 356 1 10 19 24
Height
5750 5752 5752 5752 5752 5752 5752 5751 5750 5748 5747 5746 5745 5743 5742 5741 5738 5735 5733 5729 5725 5721 5716 5711 5706 5699 5692 5685 5677 5669 5660 5650 5642 5635 5620 5608 5597 5584 5574 5561 5549 5537 5524
5746 5746 5747 5747 5748 5748 5747 5747 5745 5745 5744 5742 5741 5739 5737 5735 5733 5730 5726 5722 5718 5714 5710 5704 5698 5691 5684 5676 5667 5658 5648 5638 5628 5620 5606 5594 5580 5565 5552 5539 5526 5512 5500
5740 5741 5743 5744 5744 5744 5744 5743 5741 5741 5739 5738 5736 5734 5732 5730 5727 5724 5720 5717 5713 5708 5702 5697 5690 5683 5675 5666 5656 5646 5635 5624 5612 5602 5591 5577 5562 5547 5535 5519 5505 5491 5481
5737 5738 5740 5740 5740 5740 5739 5738 5737 5735 5735 5734 5732 5730 5728 5725 5721 5718 5715 5711 5706 5700 5694 5687 5681 5673 5664 5655 5645 5634 5622 5610 5598 5586 5573 5559 5544 5528 5514 5501 5492 5480 5471
5734 5735 5736 5736 5735 5735 5734 5733 5732 5732 5731 5730 5728 5725 5723 5720 5717 5714 5709 5705 5699 5692 5685 5678 5671 5663 5654 5644 5632 5620 5608 5596 5583 5570 5555 5542 5526 5512 5497 5487 5478 5469 5460
5730 5731 5731 5730 5730 5729 5729 5729 5729 5728 5727 5726 5724 5721 5719 5715 5712 5708 5704 5698 5692 5686 5679 5671 5663 5654 5644 5633 5620 5606 5592 5581 5569 5554 5539 5524 5510 5495 5485 5474 5463 5454 5447
5725 5725 5725 5725 5725 5725 5726 5726 5726 5725 5723 5721 5720 5717 5715 5711 5707 5702 5697 5691 5685 5678 5671 5662 5653 5644 5634 5624 5611 5596 5581 5565 5550 5537 5523 5507 5496 5483 5473 5462 5448 5437 5427
5720 5720 5721 5721 5721 5722 5722 5722 5721 5720 5719 5717 5716 5714 5710 5706 5702 5697 5691 5685 5678 5670 5662 5653 5644 5635 5625 5614 5601 5587 5572 5557 5542 5525 5509 5494 5482 5472 5458 5445 5434 5423 5411
5715 5716 5716 5717 5718 5718 5718 5718 5717 5716 5715 5713 5711 5709 5705 5701 5696 5691 5686 5679 5671 5663 5655 5645 5637 5626 5615 5604 5592 5579 5565 5549 5532 5514 5498 5485 5473 5459 5446 5435 5423 5411 5401
5710 5711 5712 5713 5714 5714 5714 5714 5713 5712 5710 5708 5706 5703 5699 5695 5690 5685 5679 5672 5665 5658 5649 5638 5627 5616 5605 5593 5581 5570 5556 5540 5525 5510 5495 5482 5468 5454 5442 5429 5418 5408 5398
5705 5707 5708 5708 5709 5710 5709 5709 5708 5707 5705 5703 5701 5698 5694 5689 5683 5678 5672 5666 5659 5650 5641 5631 5619 5607 5596 5584 5571 5558 5543 5529 5514 5500 5489 5477 5464 5451 5439 5428 5417 5407 5400
5700 5701 5703 5703 5704 5704 5704 5704 5703 5701 5700 5697 5694 5691 5687 5682 5677 5671 5665 5658 5650 5642 5633 5623 5611 5599 5587 5575 5561 5547 5533 5520 5507 5494 5484 5473 5462 5450 5439 5428 5418 5408 5400
5694 5695 5697 5698 5698 5699 5698 5698 5697 5695 5693 5691 5688 5684 5680 5675 5670 5664 5657 5651 5643 5633 5624 5614 5602 5591 5580 5567 5553 5541 5528 5514 5501 5490 5480 5470 5459 5449 5438 5428 5419 5409 5402
5688 5689 5691 5691 5692 5692 5692 5691 5690 5689 5687 5684 5681 5677 5673 5668 5662 5656 5650 5642 5634 5625 5616 5605 5595 5584 5572 5559 5547 5535 5521 5508 5496 5486 5477 5467 5456 5447 5438 5429 5421 5412 5403
5681 5682 5684 5684 5685 5685 5685 5684 5683 5682 5680 5677 5674 5670 5666 5660 5655 5648 5642 5635 5627 5619 5609 5599 5589 5578 5567 5554 5541 5528 5516 5504 5492 5482 5474 5464 5455 5446 5438 5430 5421 5413 5405
5674 5675 5676 5677 5677 5677 5677 5677 5676 5674 5672 5670 5666 5662 5658 5653 5647 5641 5634 5627 5620 5611 5602 5592 5582 5571 5560 5548 5537 5524 5511 5499 5488 5479 5471 5462 5454 5446 5438 5430 5422 5415 5407
5666 5666 5668 5669 5669 5670 5670 5669 5668 5667 5664 5662 5658 5654 5650 5645 5639 5633 5626 5619 5612 5603 5594 5584 5574 5564 5553 5542 5531 5519 5507 5495 5484 5476 5469 5461 5453 5445 5438 5431 5424 5417 5409
5657 5658 5659 5659 5661 5661 5661 5661 5659 5658 5656 5653 5650 5646 5642 5637 5631 5625 5618 5611 5603 5595 5586 5577 5568 5558 5547 5537 5525 5514 5502 5491 5480 5472 5466 5460 5452 5445 5439 5432 5425 5418 5411
5647 5649 5650 5650 5652 5653 5653 5652 5650 5649 5647 5644 5641 5637 5633 5628 5622 5617 5610 5604 5596 5588 5578 5570 5561 5551 5541 5531 5520 5508 5497 5487 5477 5470 5464 5458 5451 5444 5438 5432 5426 5419 5412
5637 5639 5640 5641 5643 5643 5643 5642 5641 5639 5637 5635 5631 5627 5623 5619 5614 5608 5602 5595 5588 5580 5571 5563 5555 5546 5536 5526 5515 5504 5493 5482 5472 5466 5460 5455 5450 5443 5437 5431 5425 5419 5412
5627 5629 5630 5631 5633 5633 5633 5632 5631 5629 5627 5625 5622 5618 5615 5610 5605 5599 5593 5587 5580 5572 5565 5557 5549 5540 5532 5521 5510 5499 5489 5478 5469 5463 5458 5453 5447 5441 5435 5429 5424 5417 5411
5615 5618 5620 5621 5622 5623 5622 5622 5620 5619 5617 5615 5612 5609 5605 5601 5596 5590 5585 5579 5572 5565 5558 5551 5542 5534 5526 5517 5507 5496 5486 5475 5467 5461 5456 5451 5445 5439 5433 5427 5421 5415 5409
5604 5607 5609 5611 5612 5612 5612 5611 5610 5609 5607 5605 5602 5599 5596 5592 5587 5582 5576 5570 5564 5558 5551 5544 5536 5528 5521 5512 5502 5493 5483 5474 5466 5460 5454 5449 5443 5436 5430 5424 5417 5412 5407
5594 5596 5599 5600 5601 5601 5600 5600 5599 5598 5596 5595 5592 5589 5586 5582 5578 5573 5567 5561 5556 5550 5543 5537 5530 5524 5516 5508 5498 5489 5481 5472 5465 5459 5453 5447 5440 5434 5427 5421 5414 5409 5405
5584 5586 5588 5588 5589 5589 5589 5588 5588 5587 5585 5584 5582 5579 5576 5572 5568 5563 5558 5553 5548 5542 5536 5530 5525 5518 5511 5503 5494 5485 5477 5470 5463 5457 5451 5445 5438 5432 5425 5419 5414 5409 5405
5572 5574 5575 5576 5577 5577 5577 5577 5576 5575 5574 5573 5571 5568 5565 5562 5558 5554 5550 5546 5541 5535 5529 5524 5518 5513 5506 5498 5490 5482 5474 5467 5460 5455 5450 5444 5437 5431 5426 5421 5416 5411 5407